Location: ????????
(56.0167°N, 38.0333°E)
Time: 03:04:57
(UTC+00:00)

NOSS 2-1 (E) - Pass Details

Date: 19 May 2025
Orbit: 385 x 1749 km, 63.3° (Epoch: 07 May)

Event Time Altitude Azimuth Distance (km) Brightness Sun altitude
Exits shadow 20:35:17 26° 164° (SSE) 859 3.7 -13.3°
Maximum altitude 20:36:10 31° 132° (SE) 743 3.6 -13.3°
Drops below altitude 10° 20:38:54 10° 67° (ENE) 1,425 5.6 -13.4°
Sets 20:41:00 0° 56° (ENE) 2,285 6.8 -13.5°
